Vacaville, CA

2:59 AM PDT on August 27, 2016 (GMT -0700)
Nut Tree

Weather History for KVCB - July, 2013

Change the Weather History Date:

Monday, July 29, 2013

  Actual Average Record
Temperature  
Mean Temperature 68 °F -  
Max Temperature 81 °F 95 °F 108 °F (2015)
Min Temperature 55 °F 56 °F 48 °F (1978)
Cooling Degree Days 3    
Growing Degree Days 18 (Base 50)    
Moisture  
Dew Point 52 °F    
Average Humidity 61    
Maximum Humidity 83    
Minimum Humidity 38    
Precipitation  
Precipitation 0.00 in - - ()
Sea Level Pressure  
Sea Level Pressure 29.87 in    
Wind  
Wind Speed 12 mph (SW)    
Max Wind Speed 17 mph    
Max Gust Speed 26 mph    
Visibility 8 miles    
Events      
Averages and records for this station are not official NWS values.
T = Trace of Precipitation, MM = Missing Value Source: NWS Daily Summary

Daily Weather History Graph

Daily Weather History Graph

Search for Another Location

Airport or City:

Trip Planner

Search our weather history database for the weather conditions in past years. The results will help you decide how hot, cold, wet, or windy it might be!

Date:

Astronomy

Jul. 29, 2013 Rise Set
Actual Time 6:07 AM PDT 8:20 PM PDT
Civil Twilight 5:38 AM PDT 8:49 PM PDT
Nautical Twilight 5:01 AM PDT 9:26 PM PDT
Astronomical Twilight 4:21 AM PDT 10:05 PM PDT
Moon No Moon Rise 1:47 PM PDT (7/29)
Length of Visible Light 15h 11m
Length of Day
14h 12m
Waning Gibbous, 50% of the Moon is Illuminated
Jul 29
Waning Gibbous
Aug 6
New
Aug 14
First Quarter
Aug 20
Full
Aug 28
Last Quarter

Hourly Weather History & Observations

Time (PDT) Temp. Heat Index Dew Point Humidity Pressure Visibility Wind Dir Wind Speed Gust Speed Precip Events Conditions
12:53 AM 62.1 °F - 50.0 °F 65% 29.75 in 7.0 mi SW 12.7 mph 18.4 mph N/A   Clear
1:53 AM 60.1 °F - 50.0 °F 69% 29.76 in 7.0 mi SW 10.4 mph 19.6 mph N/A   Clear
2:53 AM 57.9 °F - 50.0 °F 75% 29.78 in 7.0 mi SW 6.9 mph 18.4 mph N/A   Clear
3:53 AM 57.0 °F - 50.0 °F 77% 29.79 in 7.0 mi SW 10.4 mph - N/A   Clear
4:53 AM 55.9 °F - 50.0 °F 80% 29.80 in 7.0 mi SW 11.5 mph 16.1 mph N/A   Clear
5:53 AM 55.0 °F - 50.0 °F 83% 29.82 in 7.0 mi SW 11.5 mph - N/A   Clear
6:53 AM 55.9 °F - 50.0 °F 80% 29.85 in 6.0 mi SW 9.2 mph - N/A   Haze
7:53 AM 59.0 °F - 51.1 °F 75% 29.87 in 7.0 mi SW 10.4 mph - N/A   Clear
8:53 AM 62.1 °F - 51.1 °F 67% 29.89 in 7.0 mi SSW 9.2 mph - N/A   Clear
9:53 AM 64.9 °F - 51.1 °F 61% 29.90 in 7.0 mi SW 15.0 mph 23.0 mph N/A   Clear
10:53 AM 68.0 °F - 52.0 °F 56% 29.91 in 8.0 mi SW 15.0 mph 20.7 mph N/A   Clear
11:53 AM 71.1 °F - 52.0 °F 51% 29.92 in 8.0 mi SSW 12.7 mph 19.6 mph N/A   Clear
12:53 PM 73.9 °F - 52.0 °F 46% 29.91 in 8.0 mi SSW 11.5 mph - N/A   Clear
1:53 PM 77.0 °F - 52.0 °F 42% 29.90 in 9.0 mi SSW 15.0 mph 24.2 mph N/A   Clear
2:53 PM 81.0 °F 80.4 °F 53.1 °F 38% 29.89 in 10.0 mi SSW 10.4 mph 16.1 mph N/A   Clear
3:53 PM 77.0 °F - 54.0 °F 45% 29.89 in 10.0 mi SSW 17.3 mph 26.5 mph N/A   Clear
4:53 PM 75.9 °F - 53.1 °F 45% 29.88 in 10.0 mi SW 17.3 mph 24.2 mph N/A   Clear
5:53 PM 75.9 °F - 53.1 °F 45% 29.88 in 10.0 mi SSW 11.5 mph 23.0 mph N/A   Clear
6:53 PM 72.0 °F - 53.1 °F 51% 29.88 in 10.0 mi SW 16.1 mph 23.0 mph N/A   Clear
7:53 PM 70.0 °F - 53.1 °F 55% 29.89 in 10.0 mi SW 11.5 mph 18.4 mph N/A   Clear
8:53 PM 68.0 °F - 53.1 °F 59% 29.90 in 10.0 mi SW 11.5 mph - N/A   Clear
9:53 PM 63.0 °F - 53.1 °F 70% 29.93 in 10.0 mi SW 11.5 mph 18.4 mph N/A   Clear
10:53 PM 62.1 °F - 52.0 °F 70% 29.94 in 10.0 mi SSW 11.5 mph - N/A   Clear
11:53 PM 61.0 °F - 51.1 °F 70% 29.94 in 10.0 mi SW 10.4 mph - N/A   Clear